Regional Weather Roundup
Issued by NWS Charleston, SC

Current Version | Previous Version | Text Only | Print | Product List | Glossary Off
Versions: 1 2 3 4 5 6 7 8 9 10 11 12 13 14 15 16 17 18 19 20 21 22 23 24 25 26 27 28 29 30 31 32 33 34 35 36 37 38 39 40 41 42 43 44 45 46 47 48 49 50

000
ASUS42 KCHS 131511
RWRCHS

REGIONAL WEATHER ROUNDUP
NATIONAL WEATHER SERVICE CHARLESTON SC
1000 AM EST WED DEC 13 2017

NOTE: "FAIR" INDICATES FEW OR NO CLOUDS BELOW 12,000 FEET WITH NO
SIGNIFICANT WEATHER AND/OR OBSTRUCTIONS TO VISIBILITY.

NOT ALL STATIONS ARE QUALITY CONTROLLED. USE DATA WITH CAUTION...
ESPECIALLY DEWPOINT OBSERVATIONS.

SCZ027-030-031-034>040-042>050-131600-
...SOUTHEAST SOUTH CAROLINA...

CITY           SKY/WX    TMP DP  RH WIND       PRES   REMARKS
N CHARLESTON   SUNNY     42  16  34 NW10      30.08R
WATERFRONT PRK   N/A     41  21  44 NW7       29.93R
JOHNS ISLAND   FAIR      43  16  33 N8        30.08S
PINOPOLIS        N/A     39  21  48 NW7       30.00R WCI  34
MONCKS CORNER  FAIR      39  14  35 NW3       30.08R
SUMMERVILLE    FAIR      39  21  48 W3        30.09S
BEAUFORT MCAS  SUNNY     42  19  39 NW10      30.10R
BEAUFORT ARPT  FAIR      41  19  42 NW8       30.09S HAZE
HILTON HEAD IS SUNNY    N/A N/A N/A N14       30.10R
WALTERBORO     SUNNY     39  18  41 NW8       30.10R WCI  34
ALLENDALE      FAIR      39  12  33 NW6       30.09R WCI  35

...SOUTHERN MIDLANDS AND PEE DEE...

CITY           SKY/WX    TMP DP  RH WIND       PRES   REMARKS
GEORGETOWN     FAIR      39  18  41 W9        30.08R WCI  33
KINGSTREE      FAIR      37  10  32 W7        30.08R WCI  32
ORANGEBURG     SUNNY     39  16  39 NW7       30.07S WCI  34
BARNWELL         N/A     41  14  33 W7        30.09R
AIKEN          FAIR      36  12  38 W6        30.09R WCI  31
MANNING        FAIR      39  12  33 MISG      30.08R
COLUMBIA       SUNNY     41  18  39 W6        30.06R
SUMTER         SUNNY     39   8  27 NW10      30.04R WCI  32
FLORENCE       SUNNY     37  11  34 NW3       30.06R
MYRTLE BEACH   SUNNY     39  12  33 NW10      30.07R WCI  32
N MYRTLE BEACH MOSUNNY   39  13  34 NW6       30.05R WCI  35

$$

GAZ063-065-086>088-099>101-113>116-118-119-134>141-150-131600-
...SOUTHEAST GEORGIA...

CITY           SKY/WX    TMP DP  RH WIND       PRES   REMARKS
SAVANNAH ARPT  SUNNY     42  14  32 NW12      30.11R
HUNTER AAF     SUNNY     42  14  31 NW12      30.08R
FORT STEWART   SUNNY     42  14  31 N10       30.10R
STATESBORO     SUNNY     40   9  27 NW5       30.10S WCI  37
SYLVANIA       SUNNY     40  19  42 N6        30.10R WCI  36
CLAXTON        FAIR      42  16  35 W6        30.11R

...CSRA...CENTRAL AND FAR SOUTHEAST GEORGIA...

CITY           SKY/WX    TMP DP  RH WIND       PRES   REMARKS
THOMSON        SUNNY     37   9  31 N9        30.12S WCI  31
AUGUSTA-BUSH   SUNNY     40  11  30 NW9       30.08R WCI  34
AUGUSTA-DANIEL SUNNY     38  10  31 NW8       30.08R WCI  32
SWAINSBORO     FAIR      37  14  38 W5        30.11R WCI  34
VIDALIA        SUNNY     41  19  42 NW5       30.11R
EASTMAN        FAIR      42  -3  15 W9        30.15R
HAZLEHURST     FAIR      43  -2  15 NW3       30.11R
ALMA           SUNNY     42  18  37 W7        30.12R
WAYCROSS       SUNNY     43  15  32 NW8       30.13R
JESUP          NOT AVBL
BAXLEY         FAIR      39  14  35 NW7       30.12R WCI  34
BRUNSWICK      SUNNY     43  21  42 W7        30.13R
SAINT SIMONS   SUNNY     44  21  40 VRB7      30.12R

$$

SCZ027-028-034-036>038-045-046-048>050-GAZ119-141-131600-
...LAKE AND SUPPLEMENTAL COASTAL OBSERVATIONS...

STATION/POSITION TIME  TEMP    WIND        PRES    WAVE   SWELL
                       AIR SEA DIR/SP/G            HT/PER HT/PER/DIR
                 (UTC) (F)     (DEG/KT/KT) (MB)    (FT/S) (FT/S/D)
WINYAH BAY       1345   35     320/  4     1018.0
LAKE MURRAY      1420   36     260/  5/  7 1016.9R
ACE BASIN NERRS  1345   38     320/  3     1018.0
FORT PULASKI     1442   39 54  330/ 12/ 15 1019.5R
SAPELO ISLAND    NOT AVBL

$$

ANZ835-935-AMZ111-154-330-350-352-354-370-450-454-472-131600-
...C-MAN AND BUOY OBSERVATIONS...

STATION/POSITION TIME  TEMP    WIND        PRES    WAVE   SWELL
                       AIR SEA DIR/SP/G            HT/PER HT/PER/DIR
                 (UTC) (F)     (DEG/KT/KT) (MB)    (FT/S) (FT/S/D)
BUOY 41004       1450   44 73  340/ 14/ 19 1018.0R   5/ 6   2/180/ 8
BUOY 41008       1450   42 59  330/ 14/ 17 1019.4R   3/ 5
FOLLY BEACH CMAN 1400   40     330/  7/ 10 1018.7
CAPERS NEARSHORE NOT AVBL
FRIPP NEARSHORE  1408   41 56  290/ 14/ 23 1018.5R


STATION/POSITION TIME  TEMP    WIND        PRES    WAVE   SWELL
                       AIR SEA DIR/SP/G            HT/PER HT/PER/DIR
                 (UTC) (F)     (DEG/KT/KT) (MB)    (FT/S) (FT/S/D)
5E ST. MARYS GA  1430      61                N/A     3/ 4
FRYING PAN BUOY  1450   41 62  320/ 17/ 21 1017.0R   6/ 5
BUOY 41025       1450   37 74  300/ 27/ 39 1014.1R   8/ 6   2/110/16
CAPE LOOKOUT NC  1400          320/ 18/ 23 1015.6
BUOY 41002       1450   57 75  310/ 21/ 29 1014.1R  12/ 9   7/300/11
BUOY 41010       NOT AVBL
ST AUGUSTINE FL  1500   46 61  340/ 14/ 15 1020.6R


$$



USA.gov is the U.S. government's official web portal to all federal, state and local government web resources and services.